Regional Weather Roundup
Issued by NWS

Home | Current Version | Previous Version | Text Only | Print | Product List | Glossary On
Versions: 1 2 3 4 5 6 7 8 9 10 11 12 13 14 15 16 17 18 19 20 21 22 23 24 25 26 27 28 29 30 31 32 33 34 35 36 37 38 39 40 41 42 43 44 45 46 47 48 49 50
000
ASUS44 KOUN 070610
RWROK

WEATHER ROUNDUP FOR OKLAHOMA
NATIONAL WEATHER SERVICE NORMAN OK
100 AM CDT THU MAY 07 2015

NOTE: "FAIR" INDICATES FEW OR NO CLOUDS BELOW 12,000 FEET WITH NO
      SIGNIFICANT WEATHER AND/OR OBSTRUCTIONS TO VISIBILITY.

OKZ001>007-009>012-014-015-017-070700-
NORTHWEST OKLAHOMA AND THE PANHANDLE

CITY           SKY/WX    TMP DP  RH WIND       PRES   REMARKS
GAGE           CLEAR     66  58  75 S26G33    29.77S
6HR MIN TEMP:  65; 6HR MAX TEMP:  81;

GUYMON         CLEAR     59  49  69 SW12      29.75R
ENID/WOODRING  CLOUDY    64  61  88 N3        29.83R
$$

OKZ016-021>023-033>039-044-045-070700-
SOUTHWEST OKLAHOMA

CITY           SKY/WX    TMP DP  RH WIND       PRES   REMARKS
LAWTON/REGL    LGT RAIN  70  55  59 S20G51    29.85R
6HR MIN TEMP:  68; 6HR MAX TEMP:  77; 6HR PCP: TRACE;

LAWTON/FT SILL TSTM      70  57  64 S22G28    29.86R
FREDERICK      LGT RAIN  65  59  81 SE26G39   29.77F
CLINTON        MOCLDY    66  62  87 SE13      29.84R
HOBART         CLOUDY    65  60  84 SE8       29.84R
ALTUS AFB      TSTM      66  66 100 S12       29.82F FOG
$$

OKZ018>020-024>031-070700-
CENTRAL OKLAHOMA

CITY           SKY/WX    TMP DP  RH WIND       PRES   REMARKS
OKLAHOMA CITY  CLOUDY    66  62  87 SE15      29.84F
6HR MIN TEMP:  63; 6HR MAX TEMP:  71; 6HR PCP:  6.37;

OKC/WILEY POST CLOUDY    67  62  84 SE16      29.84S
OKC/TINKER AFB CLOUDY    64  61  93 SE9       29.85F
STILLWATER     MOCLDY    71  61  70 SE22G33   29.83R
GUTHRIE        CLOUDY    68  62  81 SE18G25   29.83R
$$

OKZ008-013-054>072-070700-
NORTHEAST OKLAHOMA

CITY           SKY/WX    TMP DP  RH WIND       PRES   REMARKS
TULSA          CLOUDY    69  64  84 S17G29    29.88S THUNDER
6HR MIN TEMP:  69; 6HR MAX TEMP:  75; 6HR PCP:  0.01;

TULSA/JONES    RAIN      69  64  84 S13G20    29.89F
PONCA CITY     MOCLDY    71  64  78 VRB7      29.88R
BARTLESVILLE   CLOUDY    71  64  78 NW6       29.90R
MUSKOGEE       CLOUDY    70  60  70 SE7       29.94S
$$

OKZ032-040>043-046>053-073>077-070700-
SOUTH CENTRAL/SOUTHEAST OKLAHOMA

CITY           SKY/WX    TMP DP  RH WIND       PRES   REMARKS
ARDMORE/DWNTWN LGT RAIN  72  66  83 S3        29.91R
MCALESTER      CLOUDY    73  64  73 S12G20    29.91F
$$



USA.gov is the U.S. government's official web portal to all federal, state and local government web resources and services.